Time,TemperatureF,DewpointF,PressureIn,WindDirection,WindDirectionDegrees,WindSpeedMPH,WindSpeedGustMPH,Humidity,HourlyPrecipIn,Conditions,Clouds,dailyrainin,SolarRadiationWatts/m^2,SoftwareType,DateUTC
2013-04-02 00:00:00,32.7,15.6,29.76,NW,304,2.0,2.0,49,0.00,,,0.00,0,Wunderground v.1.15,2013-04-02 04:00:00,
2013-04-02 00:05:00,32.6,15.1,29.76,NW,319,5.0,7.0,48,0.00,,,0.00,0,Wunderground v.1.15,2013-04-02 04:05:00,
2013-04-02 00:10:00,32.7,14.7,29.76,WNW,286,4.0,4.0,47,0.00,,,0.00,0,Wunderground v.1.15,2013-04-02 04:10:00,
2013-04-02 00:19:00,32.5,15.0,29.77,West,274,2.0,6.0,48,0.00,,,0.00,0,Wunderground v.1.15,2013-04-02 04:19:00,
2013-04-02 00:25:00,32.5,15.0,29.77,North,5,3.0,6.0,48,0.00,,,0.00,0,Wunderground v.1.15,2013-04-02 04:25:00,
2013-04-02 00:35:00,32.3,15.3,29.77,NW,321,3.0,5.0,49,0.00,,,0.00,0,Wunderground v.1.15,2013-04-02 04:35:00,
2013-04-02 00:45:00,31.9,15.3,29.77,ESE,115,1.0,2.0,50,0.00,,,0.00,0,Wunderground v.1.15,2013-04-02 04:45:00,
2013-04-02 00:55:00,31.3,16.1,29.77,WSW,244,0.0,0.0,53,0.00,,,0.00,0,Wunderground v.1.15,2013-04-02 04:55:00,
2013-04-02 01:00:00,31.2,16.0,29.78,SSW,194,1.0,1.0,53,0.00,,,0.00,0,Wunderground v.1.15,2013-04-02 05:00:00,
2013-04-02 01:09:00,31.1,16.4,29.78,NNW,333,0.0,0.0,54,0.00,,,0.00,0,Wunderground v.1.15,2013-04-02 05:09:00,
2013-04-02 01:15:00,30.8,16.5,29.79,SW,223,0.0,0.0,55,0.00,,,0.00,0,Wunderground v.1.15,2013-04-02 05:15:00,
2013-04-02 01:24:00,30.9,16.2,29.79,SSE,154,1.0,1.0,54,0.00,,,0.00,0,Wunderground v.1.15,2013-04-02 05:24:00,
2013-04-02 01:35:00,30.7,16.0,29.79,West,279,1.0,2.0,54,0.00,,,0.00,0,Wunderground v.1.15,2013-04-02 05:35:00,
2013-04-02 01:45:00,31.0,15.4,29.79,NW,312,4.0,12.0,52,0.00,,,0.00,0,Wunderground v.1.15,2013-04-02 05:45:00,
2013-04-02 01:54:00,31.0,15.4,29.79,NW,323,2.0,4.0,52,0.00,,,0.00,0,Wunderground v.1.15,2013-04-02 05:54:00,
2013-04-02 02:00:00,30.9,14.9,29.78,NW,315,1.0,5.0,51,0.00,,,0.00,0,Wunderground v.1.15,2013-04-02 06:00:00,
2013-04-02 02:10:00,30.9,14.4,29.79,NW,309,2.0,4.0,50,0.00,,,0.00,0,Wunderground v.1.15,2013-04-02 06:10:00,
2013-04-02 02:19:00,30.9,14.4,29.78,SW,234,4.0,4.0,50,0.00,,,0.00,0,Wunderground v.1.15,2013-04-02 06:19:00,
2013-04-02 02:25:00,30.7,14.2,29.78,NNE,24,1.0,4.0,50,0.00,,,0.00,0,Wunderground v.1.15,2013-04-02 06:25:00,
2013-04-02 02:35:00,30.5,14.0,29.78,NW,304,3.0,3.0,50,0.00,,,0.00,0,Wunderground v.1.15,2013-04-02 06:35:00,
2013-04-02 02:45:00,30.4,14.4,29.78,SSW,204,2.0,4.0,51,0.00,,,0.00,0,Wunderground v.1.15,2013-04-02 06:45:00,
2013-04-02 02:55:00,30.1,13.7,29.79,South,182,1.0,2.0,50,0.00,,,0.00,0,Wunderground v.1.15,2013-04-02 06:55:00,
2013-04-02 03:00:00,30.2,13.8,29.78,NW,304,2.0,4.0,50,0.00,,,0.00,0,Wunderground v.1.15,2013-04-02 07:00:00,
2013-04-02 03:10:00,30.0,13.6,29.78,SW,218,1.0,4.0,50,0.00,,,0.00,0,Wunderground v.1.15,2013-04-02 07:10:00,
2013-04-02 03:20:00,29.8,13.4,29.79,WNW,291,1.0,2.0,50,0.00,,,0.00,0,Wunderground v.1.15,2013-04-02 07:20:00,
2013-04-02 03:30:00,29.7,13.3,29.79,NW,326,1.0,3.0,50,0.00,,,0.00,0,Wunderground v.1.15,2013-04-02 07:30:00,
2013-04-02 03:40:00,29.5,13.1,29.79,NW,304,1.0,1.0,50,0.00,,,0.00,0,Wunderground v.1.15,2013-04-02 07:40:00,
2013-04-02 03:45:00,29.4,13.0,29.79,WNW,298,1.0,3.0,50,0.00,,,0.00,0,Wunderground v.1.15,2013-04-02 07:45:00,
2013-04-02 03:55:00,29.3,12.5,29.80,North,5,1.0,1.0,49,0.00,,,0.00,0,Wunderground v.1.15,2013-04-02 07:55:00,
2013-04-02 04:00:00,29.3,12.5,29.80,WSW,256,0.0,0.0,49,0.00,,,0.00,0,Wunderground v.1.15,2013-04-02 08:00:00,
2013-04-02 04:10:00,29.3,12.5,29.80,NW,319,1.0,1.0,49,0.00,,,0.00,0,Wunderground v.1.15,2013-04-02 08:10:00,
2013-04-02 04:20:00,28.8,12.5,29.80,NW,325,0.0,0.0,50,0.00,,,0.00,0,Wunderground v.1.15,2013-04-02 08:20:00,
2013-04-02 04:30:00,28.2,12.8,29.80,SW,214,0.0,0.0,52,0.00,,,0.00,0,Wunderground v.1.15,2013-04-02 08:30:00,
2013-04-02 04:39:00,27.8,12.4,29.80,SW,214,0.0,0.0,52,0.00,,,0.00,0,Wunderground v.1.15,2013-04-02 08:39:00,
2013-04-02 04:45:00,27.7,12.8,29.80,South,186,0.0,0.0,53,0.00,,,0.00,0,Wunderground v.1.15,2013-04-02 08:45:00,
2013-04-02 04:55:00,27.1,14.7,29.80,South,186,0.0,0.0,59,0.00,,,0.00,0,Wunderground v.1.15,2013-04-02 08:55:00,
2013-04-02 05:00:00,26.5,14.9,29.80,South,186,0.0,0.0,61,0.00,,,0.00,0,Wunderground v.1.15,2013-04-02 09:00:00,
2013-04-02 05:09:00,26.3,15.0,29.81,South,186,0.0,0.0,62,0.00,,,0.00,0,Wunderground v.1.15,2013-04-02 09:09:00,
2013-04-02 05:15:00,26.0,15.5,29.81,South,186,0.0,0.0,64,0.00,,,0.00,0,Wunderground v.1.15,2013-04-02 09:15:00,
2013-04-02 05:25:00,25.9,15.4,29.81,South,186,0.0,0.0,64,0.00,,,0.00,0,Wunderground v.1.15,2013-04-02 09:25:00,
2013-04-02 05:34:00,26.2,14.9,29.80,SSW,213,0.0,0.0,62,0.00,,,0.00,0,Wunderground v.1.15,2013-04-02 09:34:00,
2013-04-02 05:45:00,26.0,14.4,29.80,SSE,165,0.0,0.0,61,0.00,,,0.00,0,Wunderground v.1.15,2013-04-02 09:45:00,
2013-04-02 05:55:00,26.0,14.0,29.81,SSE,163,0.0,0.0,60,0.00,,,0.00,0,Wunderground v.1.15,2013-04-02 09:55:00,
2013-04-02 06:00:00,25.5,14.3,29.81,SE,139,0.0,0.0,62,0.00,,,0.00,0,Wunderground v.1.15,2013-04-02 10:00:00,
2013-04-02 06:09:00,25.0,14.2,29.82,East,99,0.0,0.0,63,0.00,,,0.00,0,Wunderground v.1.15,2013-04-02 10:09:00,
2013-04-02 06:15:00,25.3,14.1,29.81,WNW,302,0.0,0.0,62,0.00,,,0.00,0,Wunderground v.1.15,2013-04-02 10:15:00,
2013-04-02 06:25:00,25.7,14.1,29.81,ENE,65,0.0,0.0,61,0.00,,,0.00,0,Wunderground v.1.15,2013-04-02 10:25:00,
2013-04-02 06:35:00,26.0,13.6,29.82,SSE,157,0.0,0.0,59,0.00,,,0.00,9,Wunderground v.1.15,2013-04-02 10:35:00,
2013-04-02 06:44:00,26.2,13.4,29.82,NE,41,0.0,0.0,58,0.00,,,0.00,12,Wunderground v.1.15,2013-04-02 10:44:00,
2013-04-02 06:55:00,26.4,13.6,29.83,West,264,0.0,0.0,58,0.00,,,0.00,18,Wunderground v.1.15,2013-04-02 10:55:00,
2013-04-02 07:00:00,26.3,13.5,29.82,SE,146,0.0,0.0,58,0.00,,,0.00,19,Wunderground v.1.15,2013-04-02 11:00:00,
2013-04-02 07:10:00,26.7,13.5,29.83,North,355,0.0,0.0,57,0.00,,,0.00,23,Wunderground v.1.15,2013-04-02 11:10:00,
2013-04-02 07:20:00,27.1,13.5,29.83,SSW,210,1.0,3.0,56,0.00,,,0.00,26,Wunderground v.1.15,2013-04-02 11:20:00,
2013-04-02 07:30:00,27.5,13.8,29.83,NW,323,2.0,2.0,56,0.00,,,0.00,30,Wunderground v.1.15,2013-04-02 11:30:00,
2013-04-02 07:39:00,28.0,14.3,29.84,NNW,348,1.0,2.0,56,0.00,,,0.00,33,Wunderground v.1.15,2013-04-02 11:39:00,
2013-04-02 07:45:00,28.2,14.1,29.84,NNW,330,1.0,3.0,55,0.00,,,0.00,33,Wunderground v.1.15,2013-04-02 11:45:00,
2013-04-02 07:55:00,28.5,14.8,29.84,South,190,1.0,5.0,56,0.00,,,0.00,236,Wunderground v.1.15,2013-04-02 11:55:00,
2013-04-02 08:00:00,28.9,14.3,29.84,WNW,289,2.0,2.0,54,0.00,,,0.00,257,Wunderground v.1.15,2013-04-02 12:00:00,
2013-04-02 08:09:00,29.5,14.0,29.84,NW,309,5.0,5.0,52,0.00,,,0.00,200,Wunderground v.1.15,2013-04-02 12:09:00,
2013-04-02 08:15:00,29.8,13.9,29.84,WNW,300,3.0,10.0,51,0.00,,,0.00,174,Wunderground v.1.15,2013-04-02 12:15:00,
2013-04-02 08:24:00,30.2,13.8,29.84,NW,313,4.0,4.0,50,0.00,,,0.00,202,Wunderground v.1.15,2013-04-02 12:24:00,
2013-04-02 08:35:00,31.0,13.6,29.84,NW,322,3.0,4.0,48,0.00,,,0.00,369,Wunderground v.1.15,2013-04-02 12:35:00,
2013-04-02 08:45:00,31.4,13.9,29.84,West,263,6.0,6.0,48,0.00,,,0.00,413,Wunderground v.1.15,2013-04-02 12:45:00,
2013-04-02 08:55:00,31.9,13.9,29.84,SW,217,3.0,6.0,47,0.00,,,0.00,413,Wunderground v.1.15,2013-04-02 12:55:00,
2013-04-02 09:00:00,31.9,12.4,29.84,NNW,338,7.0,10.0,44,0.00,,,0.00,422,Wunderground v.1.15,2013-04-02 13:00:00,
2013-04-02 09:10:00,32.4,12.9,29.84,NW,307,4.0,11.0,44,0.00,,,0.00,499,Wunderground v.1.15,2013-04-02 13:10:00,
2013-04-02 09:19:00,32.9,12.8,29.84,WNW,298,8.0,8.0,43,0.00,,,0.00,490,Wunderground v.1.15,2013-04-02 13:19:00,
2013-04-02 09:25:00,32.8,13.8,29.84,NNE,17,8.0,8.0,45,0.00,,,0.00,603,Wunderground v.1.15,2013-04-02 13:25:00,
2013-04-02 09:35:00,33.3,12.6,29.84,SE,132,6.0,12.0,42,0.00,,,0.00,267,Wunderground v.1.15,2013-04-02 13:35:00,
2013-04-02 09:45:00,33.6,12.4,29.84,WSW,257,7.0,7.0,41,0.00,,,0.00,237,Wunderground v.1.15,2013-04-02 13:45:00,
2013-04-02 09:55:00,34.6,13.8,29.83,West,281,6.0,9.0,42,0.00,,,0.00,373,Wunderground v.1.15,2013-04-02 13:55:00,
2013-04-02 10:00:00,34.8,13.5,29.83,SSW,198,4.0,4.0,41,0.00,,,0.00,830,Wunderground v.1.15,2013-04-02 14:00:00,
2013-04-02 10:09:00,35.2,13.3,29.83,SW,215,6.0,6.0,40,0.00,,,0.00,740,Wunderground v.1.15,2013-04-02 14:09:00,
2013-04-02 10:15:00,35.9,14.5,29.83,West,277,5.0,10.0,41,0.00,,,0.00,837,Wunderground v.1.15,2013-04-02 14:15:00,
2013-04-02 10:25:00,35.8,12.0,29.83,West,280,11.0,11.0,37,0.00,,,0.00,870,Wunderground v.1.15,2013-04-02 14:25:00,
2013-04-02 10:34:00,36.1,12.3,29.83,West,277,7.0,10.0,37,0.00,,,0.00,807,Wunderground v.1.15,2013-04-02 14:34:00,
2013-04-02 10:45:00,36.2,11.8,29.84,WSW,237,10.0,10.0,36,0.00,,,0.00,875,Wunderground v.1.15,2013-04-02 14:45:00,
2013-04-02 10:50:00,36.5,12.7,29.83,NW,307,10.0,10.0,37,0.00,,,0.00,854,Wunderground v.1.15,2013-04-02 14:50:00,
2013-04-02 10:55:00,37.3,15.2,29.83,WNW,296,8.0,10.0,40,0.00,,,0.00,993,Wunderground v.1.15,2013-04-02 14:55:00,
2013-04-02 11:00:00,37.7,13.7,29.83,NNW,338,8.0,8.0,37,0.00,,,0.00,970,Wunderground v.1.15,2013-04-02 15:00:00,
2013-04-02 11:10:00,37.2,13.3,29.83,NW,313,8.0,11.0,37,0.00,,,0.00,353,Wunderground v.1.15,2013-04-02 15:10:00,
2013-04-02 11:19:00,36.6,13.9,29.83,NW,316,7.0,7.0,39,0.00,,,0.00,371,Wunderground v.1.15,2013-04-02 15:19:00,
2013-04-02 11:29:00,36.8,13.5,29.83,WSW,258,8.0,8.0,38,0.00,,,0.00,410,Wunderground v.1.15,2013-04-02 15:29:00,
2013-04-02 11:40:00,35.9,13.9,29.83,West,281,7.0,8.0,40,0.00,,,0.00,462,Wunderground v.1.15,2013-04-02 15:40:00,
2013-04-02 11:50:00,35.3,12.2,29.83,East,88,7.0,7.0,38,0.00,,,0.00,336,Wunderground v.1.15,2013-04-02 15:50:00,
2013-04-02 12:00:00,35.6,12.5,29.82,West,263,9.0,11.0,38,0.00,,,0.00,216,Wunderground v.1.15,2013-04-02 16:00:00,
2013-04-02 12:10:00,35.7,11.9,29.82,West,273,10.0,10.0,37,0.00,,,0.00,320,Wunderground v.1.15,2013-04-02 16:10:00,
2013-04-02 12:20:00,37.1,15.0,29.82,West,270,5.0,5.0,40,0.00,,,0.00,1134,Wunderground v.1.15,2013-04-02 16:20:00,
2013-04-02 12:29:00,37.3,17.4,29.82,South,171,6.0,6.0,44,0.00,,,0.00,492,Wunderground v.1.15,2013-04-02 16:29:00,
2013-04-02 12:35:00,37.3,17.9,29.81,NNE,21,4.0,6.0,45,0.00,,,0.00,234,Wunderground v.1.15,2013-04-02 16:35:00,
2013-04-02 12:45:00,36.7,17.8,29.82,SE,146,6.0,9.0,46,0.00,,,0.00,309,Wunderground v.1.15,2013-04-02 16:45:00,
2013-04-02 12:55:00,37.4,18.0,29.82,NW,317,5.0,11.0,45,0.00,,,0.00,939,Wunderground v.1.15,2013-04-02 16:55:00,
2013-04-02 13:00:00,37.7,17.7,29.81,SSW,213,8.0,8.0,44,0.00,,,0.00,1111,Wunderground v.1.15,2013-04-02 17:00:00,
2013-04-02 13:10:00,37.1,17.2,29.80,SW,233,7.0,7.0,44,0.00,,,0.00,1139,Wunderground v.1.15,2013-04-02 17:10:00,
2013-04-02 13:19:00,37.8,17.8,29.81,West,267,8.0,8.0,44,0.00,,,0.00,301,Wunderground v.1.15,2013-04-02 17:19:00,
2013-04-02 13:25:00,37.2,17.3,29.80,SSE,153,7.0,8.0,44,0.00,,,0.00,819,Wunderground v.1.15,2013-04-02 17:25:00,
2013-04-02 13:30:00,37.9,18.4,29.81,WNW,288,8.0,8.0,45,0.00,,,0.00,838,Wunderground v.1.15,2013-04-02 17:30:00,
2013-04-02 13:40:00,37.8,18.3,29.80,NW,314,9.0,9.0,45,0.00,,,0.00,236,Wunderground v.1.15,2013-04-02 17:40:00,
2013-04-02 13:49:00,37.9,17.4,29.80,NW,321,5.0,5.0,43,0.00,,,0.00,276,Wunderground v.1.15,2013-04-02 17:49:00,
2013-04-02 13:55:00,37.8,17.8,29.80,SW,216,3.0,5.0,44,0.00,,,0.00,304,Wunderground v.1.15,2013-04-02 17:55:00,
2013-04-02 14:00:00,37.4,15.8,29.80,West,274,6.0,14.0,41,0.00,,,0.00,294,Wunderground v.1.15,2013-04-02 18:00:00,
2013-04-02 14:09:00,38.3,16.1,29.80,West,263,7.0,7.0,40,0.00,,,0.00,230,Wunderground v.1.15,2013-04-02 18:09:00,
2013-04-02 14:15:00,38.2,16.5,29.79,SSW,196,6.0,7.0,41,0.00,,,0.00,738,Wunderground v.1.15,2013-04-02 18:15:00,
2013-04-02 14:20:00,37.7,14.3,29.79,SSW,203,7.0,7.0,38,0.00,,,0.00,318,Wunderground v.1.15,2013-04-02 18:20:00,
2013-04-02 14:30:00,39.2,15.7,29.79,NNW,331,5.0,6.0,38,0.00,,,0.00,788,Wunderground v.1.15,2013-04-02 18:30:00,
2013-04-02 14:35:00,39.4,17.6,29.79,NW,311,8.0,8.0,41,0.00,,,0.00,960,Wunderground v.1.15,2013-04-02 18:35:00,
2013-04-02 14:44:00,39.5,15.3,29.78,WNW,284,6.0,8.0,37,0.00,,,0.00,188,Wunderground v.1.15,2013-04-02 18:44:00,
2013-04-02 14:54:00,39.7,14.9,29.78,WNW,293,5.0,5.0,36,0.00,,,0.00,295,Wunderground v.1.15,2013-04-02 18:54:00,
2013-04-02 15:00:00,40.5,15.0,29.79,NNW,346,6.0,12.0,35,0.00,,,0.00,946,Wunderground v.1.15,2013-04-02 19:00:00,
2013-04-02 15:09:00,39.2,13.1,29.79,SW,222,8.0,8.0,34,0.00,,,0.00,359,Wunderground v.1.15,2013-04-02 19:09:00,
2013-04-02 15:14:00,38.8,14.1,29.79,NW,318,7.0,11.0,36,0.00,,,0.00,345,Wunderground v.1.15,2013-04-02 19:14:00,
2013-04-02 15:24:00,39.2,12.5,29.78,West,273,8.0,12.0,33,0.00,,,0.00,218,Wunderground v.1.15,2013-04-02 19:24:00,
2013-04-02 15:30:00,38.3,12.3,29.79,WSW,254,6.0,6.0,34,0.00,,,0.00,248,Wunderground v.1.15,2013-04-02 19:30:00,
2013-04-02 15:40:00,37.8,12.6,29.79,WSW,256,7.0,7.0,35,0.00,,,0.00,255,Wunderground v.1.15,2013-04-02 19:40:00,
2013-04-02 15:45:00,37.8,13.8,29.79,WNW,297,6.0,7.0,37,0.00,,,0.00,248,Wunderground v.1.15,2013-04-02 19:45:00,
2013-04-02 15:54:00,39.4,14.6,29.78,NNW,336,6.0,9.0,36,0.00,,,0.00,765,Wunderground v.1.15,2013-04-02 19:54:00,
2013-04-02 16:00:00,39.6,15.4,29.78,WNW,292,7.0,7.0,37,0.00,,,0.00,686,Wunderground v.1.15,2013-04-02 20:00:00,
2013-04-02 16:09:00,39.0,14.3,29.78,SSW,205,9.0,9.0,36,0.00,,,0.00,666,Wunderground v.1.15,2013-04-02 20:09:00,
2013-04-02 16:19:00,39.6,14.2,29.78,NW,313,8.0,8.0,35,0.00,,,0.00,176,Wunderground v.1.15,2013-04-02 20:19:00,
2013-04-02 16:29:00,38.1,13.5,29.79,WNW,292,10.0,10.0,36,0.00,,,0.00,202,Wunderground v.1.15,2013-04-02 20:29:00,
2013-04-02 16:35:00,38.4,14.4,29.79,WNW,303,7.0,10.0,37,0.00,,,0.00,647,Wunderground v.1.15,2013-04-02 20:35:00,
2013-04-02 16:45:00,39.3,15.2,29.79,West,278,6.0,16.0,37,0.00,,,0.00,534,Wunderground v.1.15,2013-04-02 20:45:00,
2013-04-02 16:50:00,39.0,15.5,29.80,SW,223,8.0,8.0,38,0.00,,,0.00,482,Wunderground v.1.15,2013-04-02 20:50:00,
2013-04-02 16:55:00,38.7,14.6,29.80,North,5,10.0,10.0,37,0.00,,,0.00,432,Wunderground v.1.15,2013-04-02 20:55:00,
2013-04-02 17:00:00,38.3,13.6,29.80,NNE,30,8.0,8.0,36,0.00,,,0.00,151,Wunderground v.1.15,2013-04-02 21:00:00,
2013-04-02 17:10:00,38.3,13.0,29.81,NW,313,7.0,11.0,35,0.00,,,0.00,438,Wunderground v.1.15,2013-04-02 21:10:00,
2013-04-02 17:19:00,37.9,12.6,29.80,NW,304,9.0,10.0,35,0.00,,,0.00,380,Wunderground v.1.15,2013-04-02 21:19:00,
2013-04-02 17:30:00,37.6,13.0,29.82,West,266,9.0,9.0,36,0.00,,,0.00,121,Wunderground v.1.15,2013-04-02 21:30:00,
2013-04-02 17:40:00,36.7,13.4,29.81,West,273,8.0,8.0,38,0.00,,,0.00,295,Wunderground v.1.15,2013-04-02 21:40:00,
2013-04-02 17:54:00,36.6,13.9,29.83,North,5,7.0,13.0,39,0.00,,,0.00,62,Wunderground v.1.15,2013-04-02 21:54:00,
2013-04-02 18:00:00,36.3,13.7,29.83,WNW,296,6.0,6.0,39,0.00,,,0.00,42,Wunderground v.1.15,2013-04-02 22:00:00,
2013-04-02 18:10:00,36.0,12.8,29.83,West,277,5.0,6.0,38,0.00,,,0.00,100,Wunderground v.1.15,2013-04-02 22:10:00,
2013-04-02 18:19:00,35.6,12.5,29.83,NNW,333,8.0,19.0,38,0.00,,,0.00,53,Wunderground v.1.15,2013-04-02 22:19:00,
2013-04-02 18:25:00,35.5,12.4,29.84,NW,313,5.0,19.0,38,0.00,,,0.00,54,Wunderground v.1.15,2013-04-02 22:25:00,
2013-04-02 18:35:00,35.3,12.2,29.84,NW,323,4.0,11.0,38,0.00,,,0.00,42,Wunderground v.1.15,2013-04-02 22:35:00,
2013-04-02 18:44:00,34.9,11.8,29.85,NW,315,4.0,13.0,38,0.00,,,0.00,28,Wunderground v.1.15,2013-04-02 22:44:00,
2013-04-02 18:50:00,34.8,12.3,29.85,NNW,328,10.0,10.0,39,0.00,,,0.00,18,Wunderground v.1.15,2013-04-02 22:50:00,
2013-04-02 19:00:00,34.4,12.0,29.85,NNW,340,7.0,7.0,39,0.00,,,0.00,11,Wunderground v.1.15,2013-04-02 23:00:00,
2013-04-02 19:14:00,34.2,12.9,29.85,NNW,330,6.0,6.0,41,0.00,,,0.00,0,Wunderground v.1.15,2013-04-02 23:14:00,
2013-04-02 19:20:00,34.1,12.8,29.86,WNW,292,4.0,4.0,41,0.00,,,0.00,0,Wunderground v.1.15,2013-04-02 23:20:00,
2013-04-02 19:25:00,33.9,12.6,29.86,West,278,4.0,4.0,41,0.00,,,0.00,0,Wunderground v.1.15,2013-04-02 23:25:00,
2013-04-02 19:35:00,33.8,12.0,29.86,NW,309,4.0,16.0,40,0.00,,,0.00,0,Wunderground v.1.15,2013-04-02 23:35:00,
2013-04-02 19:40:00,33.8,12.0,29.86,NW,325,5.0,5.0,40,0.00,,,0.00,0,Wunderground v.1.15,2013-04-02 23:40:00,
2013-04-02 19:49:00,33.8,12.0,29.87,West,261,4.0,6.0,40,0.00,,,0.00,0,Wunderground v.1.15,2013-04-02 23:49:00,
2013-04-02 19:55:00,33.8,12.6,29.87,SW,223,4.0,12.0,41,0.00,,,0.00,0,Wunderground v.1.15,2013-04-02 23:55:00,
2013-04-02 20:00:00,33.7,11.9,29.87,NNW,346,4.0,10.0,40,0.00,,,0.00,0,Wunderground v.1.15,2013-04-03 00:00:00,
2013-04-02 20:05:00,33.4,11.6,29.87,WNW,282,4.0,10.0,40,0.00,,,0.00,0,Wunderground v.1.15,2013-04-03 00:05:00,
2013-04-02 20:15:00,33.2,12.0,29.87,SW,226,3.0,11.0,41,0.00,,,0.00,0,Wunderground v.1.15,2013-04-03 00:15:00,
2013-04-02 20:25:00,33.0,11.8,29.87,NNW,336,5.0,6.0,41,0.00,,,0.00,0,Wunderground v.1.15,2013-04-03 00:25:00,
2013-04-02 20:30:00,32.8,11.6,29.88,NNW,328,7.0,7.0,41,0.00,,,0.00,0,Wunderground v.1.15,2013-04-03 00:30:00,
2013-04-02 20:40:00,32.5,11.9,29.88,SW,225,5.0,5.0,42,0.00,,,0.00,0,Wunderground v.1.15,2013-04-03 00:40:00,
2013-04-02 20:49:00,32.4,11.8,29.88,WNW,287,7.0,11.0,42,0.00,,,0.00,0,Wunderground v.1.15,2013-04-03 00:49:00,
2013-04-02 20:55:00,32.4,12.4,29.89,WNW,291,7.0,14.0,43,0.00,,,0.00,0,Wunderground v.1.15,2013-04-03 00:55:00,
2013-04-02 21:00:00,32.2,12.7,29.89,NNW,335,5.0,7.0,44,0.00,,,0.00,0,Wunderground v.1.15,2013-04-03 01:00:00,
2013-04-02 21:09:00,32.0,12.5,29.89,North,360,6.0,6.0,44,0.00,,,0.00,0,Wunderground v.1.15,2013-04-03 01:09:00,
2013-04-02 21:20:00,32.0,12.0,29.89,WNW,288,4.0,6.0,43,0.00,,,0.00,0,Wunderground v.1.15,2013-04-03 01:20:00,
2013-04-02 21:30:00,31.7,13.3,29.90,SSW,197,2.0,4.0,46,0.00,,,0.00,0,Wunderground v.1.15,2013-04-03 01:30:00,
2013-04-02 21:39:00,31.6,12.7,29.90,West,259,2.0,2.0,45,0.00,,,0.00,0,Wunderground v.1.15,2013-04-03 01:39:00,
2013-04-02 21:45:00,31.6,13.2,29.90,WNW,284,3.0,3.0,46,0.00,,,0.00,0,Wunderground v.1.15,2013-04-03 01:45:00,
2013-04-02 21:55:00,31.5,13.1,29.89,West,277,3.0,3.0,46,0.00,,,0.00,0,Wunderground v.1.15,2013-04-03 01:55:00,
2013-04-02 22:00:00,31.5,13.1,29.89,South,191,3.0,3.0,46,0.00,,,0.00,0,Wunderground v.1.15,2013-04-03 02:00:00,
2013-04-02 22:10:00,31.5,13.6,29.89,WNW,286,2.0,6.0,47,0.00,,,0.00,0,Wunderground v.1.15,2013-04-03 02:10:00,
2013-04-02 22:19:00,31.4,13.9,29.90,NW,325,3.0,3.0,48,0.00,,,0.00,0,Wunderground v.1.15,2013-04-03 02:19:00,
2013-04-02 22:30:00,31.3,13.4,29.89,NW,320,1.0,6.0,47,0.00,,,0.00,0,Wunderground v.1.15,2013-04-03 02:30:00,
2013-04-02 22:35:00,31.2,14.2,29.90,NW,315,2.0,6.0,49,0.00,,,0.00,0,Wunderground v.1.15,2013-04-03 02:35:00,
2013-04-02 22:45:00,31.1,14.1,29.90,NNW,342,1.0,1.0,49,0.00,,,0.00,0,Wunderground v.1.15,2013-04-03 02:45:00,
2013-04-02 22:55:00,31.2,14.7,29.90,West,275,1.0,5.0,50,0.00,,,0.00,0,Wunderground v.1.15,2013-04-03 02:55:00,
2013-04-02 23:00:00,31.2,14.7,29.89,West,271,2.0,2.0,50,0.00,,,0.00,0,Wunderground v.1.15,2013-04-03 03:00:00,
2013-04-02 23:10:00,31.3,14.8,29.89,SSW,194,3.0,3.0,50,0.00,,,0.00,0,Wunderground v.1.15,2013-04-03 03:10:00,
2013-04-02 23:19:00,30.9,14.9,29.89,WNW,295,1.0,2.0,51,0.00,,,0.00,0,Wunderground v.1.15,2013-04-03 03:19:00,
2013-04-02 23:30:00,30.9,15.8,29.89,East,92,1.0,1.0,53,0.00,,,0.00,0,Wunderground v.1.15,2013-04-03 03:30:00,
2013-04-02 23:40:00,31.0,15.0,29.89,NNW,348,3.0,3.0,51,0.00,,,0.00,0,Wunderground v.1.15,2013-04-03 03:40:00,
2013-04-02 23:49:00,31.0,15.4,29.89,West,271,3.0,5.0,52,0.00,,,0.00,0,Wunderground v.1.15,2013-04-03 03:49:00,
2013-04-02 23:54:00,31.0,15.0,29.89,NW,313,4.0,14.0,51,0.00,,,0.00,0,Wunderground v.1.15,2013-04-03 03:54:00,